﻿測定場所 (Monitoring sites),日付 (Measurement date),時間 (Measurement time),線量率 最大値 (max) μGy/h,線量率 最小値 (min) μGy/h,線量率 平均値 (average) μGy/h,
江戸川 (Edogawa),2014-09-07,23:01～24:00,0.0758,0.0662,0.0700,
江戸川 (Edogawa),2014-09-07,22:01～23:00,0.0747,0.0661,0.0704,
江戸川 (Edogawa),2014-09-07,21:01～22:00,0.0742,0.0664,0.0702,
江戸川 (Edogawa),2014-09-07,20:01～21:00,0.0730,0.0666,0.0702,
江戸川 (Edogawa),2014-09-07,19:01～20:00,0.0737,0.0670,0.0701,
江戸川 (Edogawa),2014-09-07,18:01～19:00,0.0758,0.0657,0.0702,
江戸川 (Edogawa),2014-09-07,17:01～18:00,0.0737,0.0675,0.0699,
江戸川 (Edogawa),2014-09-07,16:01～17:00,0.0741,0.0654,0.0699,
江戸川 (Edogawa),2014-09-07,15:01～16:00,0.0733,0.0673,0.0700,
江戸川 (Edogawa),2014-09-07,14:01～15:00,0.0755,0.0668,0.0705,
江戸川 (Edogawa),2014-09-07,13:01～14:00,0.0777,0.0682,0.0721,
江戸川 (Edogawa),2014-09-07,12:01～13:00,0.0811,0.0709,0.0746,
江戸川 (Edogawa),2014-09-07,11:01～12:00,0.0793,0.0702,0.0735,
江戸川 (Edogawa),2014-09-07,10:01～11:00,0.0858,0.0683,0.0780,
江戸川 (Edogawa),2014-09-07,09:01～10:00,0.0911,0.0771,0.0836,
江戸川 (Edogawa),2014-09-07,08:01～09:00,0.0806,0.0699,0.0750,
江戸川 (Edogawa),2014-09-07,07:01～08:00,0.0787,0.0706,0.0730,
江戸川 (Edogawa),2014-09-07,06:01～07:00,0.0758,0.0689,0.0722,
江戸川 (Edogawa),2014-09-07,05:01～06:00,0.0757,0.0669,0.0715,
江戸川 (Edogawa),2014-09-07,04:01～05:00,0.0740,0.0666,0.0709,
江戸川 (Edogawa),2014-09-07,03:01～04:00,0.0733,0.0671,0.0709,
江戸川 (Edogawa),2014-09-07,02:01～03:00,0.0835,0.0695,0.0735,
江戸川 (Edogawa),2014-09-07,01:01～02:00,0.0824,0.0713,0.0762,
江戸川 (Edogawa),2014-09-07,00:01～01:00,0.0859,0.0734,0.0798,
江戸川 (Edogawa),2014-09-06,23:01～24:00,0.0815,0.0715,0.0754,
江戸川 (Edogawa),2014-09-06,22:01～23:00,0.0773,0.0695,0.0731,
江戸川 (Edogawa),2014-09-06,21:01～22:00,0.0762,0.0654,0.0723,
江戸川 (Edogawa),2014-09-06,20:01～21:00,0.0775,0.0698,0.0722,
江戸川 (Edogawa),2014-09-06,19:01～20:00,0.0752,0.0694,0.0722,
江戸川 (Edogawa),2014-09-06,18:01～19:00,0.0761,0.0692,0.0724,
江戸川 (Edogawa),2014-09-06,17:01～18:00,0.0762,0.0686,0.0721,
江戸川 (Edogawa),2014-09-06,16:01～17:00,0.0800,0.0692,0.0722,
江戸川 (Edogawa),2014-09-06,15:01～16:00,0.0762,0.0687,0.0724,
江戸川 (Edogawa),2014-09-06,14:01～15:00,0.0767,0.0686,0.0723,
江戸川 (Edogawa),2014-09-06,13:01～14:00,0.0749,0.0682,0.0718,
江戸川 (Edogawa),2014-09-06,12:01～13:00,0.0752,0.0688,0.0718,
江戸川 (Edogawa),2014-09-06,11:01～12:00,0.0744,0.0678,0.0718,
江戸川 (Edogawa),2014-09-06,10:01～11:00,0.0748,0.0693,0.0720,
江戸川 (Edogawa),2014-09-06,09:01～10:00,0.0780,0.0691,0.0729,
江戸川 (Edogawa),2014-09-06,08:01～09:00,0.0772,0.0701,0.0731,
江戸川 (Edogawa),2014-09-06,07:01～08:00,0.0791,0.0683,0.0737,
江戸川 (Edogawa),2014-09-06,06:01～07:00,0.0780,0.0704,0.0733,
江戸川 (Edogawa),2014-09-06,05:01～06:00,0.0798,0.0701,0.0733,
江戸川 (Edogawa),2014-09-06,04:01～05:00,0.0763,0.0691,0.0724,
江戸川 (Edogawa),2014-09-06,03:01～04:00,0.0815,0.0684,0.0725,
江戸川 (Edogawa),2014-09-06,02:01～03:00,0.0783,0.0676,0.0726,
江戸川 (Edogawa),2014-09-06,01:01～02:00,0.0756,0.0696,0.0725,
江戸川 (Edogawa),2014-09-06,00:01～01:00,0.0738,0.0683,0.0713,
江戸川 (Edogawa),2014-09-05,23:01～24:00,0.0752,0.0674,0.0713,
江戸川 (Edogawa),2014-09-05,22:01～23:00,0.0741,0.0678,0.0713,
江戸川 (Edogawa),2014-09-05,21:01～22:00,0.0747,0.0679,0.0713,
江戸川 (Edogawa),2014-09-05,20:01～21:00,0.0762,0.0678,0.0714,
江戸川 (Edogawa),2014-09-05,19:01～20:00,0.0762,0.0676,0.0716,
江戸川 (Edogawa),2014-09-05,18:01～19:00,0.0753,0.0654,0.0708,
江戸川 (Edogawa),2014-09-05,17:01～18:00,0.0743,0.0683,0.0716,
江戸川 (Edogawa),2014-09-05,16:01～17:00,0.0741,0.0675,0.0713,
江戸川 (Edogawa),2014-09-05,15:01～16:00,0.0748,0.0685,0.0715,
江戸川 (Edogawa),2014-09-05,14:01～15:00,0.0749,0.0669,0.0713,
江戸川 (Edogawa),2014-09-05,13:01～14:00,0.0740,0.0679,0.0714,
江戸川 (Edogawa),2014-09-05,12:01～13:00,0.0745,0.0672,0.0712,
江戸川 (Edogawa),2014-09-05,11:01～12:00,0.0753,0.0670,0.0711,
江戸川 (Edogawa),2014-09-05,10:01～11:00,0.0750,0.0657,0.0709,
江戸川 (Edogawa),2014-09-05,09:01～10:00,0.0736,0.0679,0.0708,
江戸川 (Edogawa),2014-09-05,08:01～09:00,0.0752,0.0675,0.0714,
江戸川 (Edogawa),2014-09-05,07:01～08:00,0.0746,0.0665,0.0711,
江戸川 (Edogawa),2014-09-05,06:01～07:00,0.0746,0.0676,0.0714,
江戸川 (Edogawa),2014-09-05,05:01～06:00,0.0739,0.0673,0.0711,
江戸川 (Edogawa),2014-09-05,04:01～05:00,0.0797,0.0662,0.0714,
江戸川 (Edogawa),2014-09-05,03:01～04:00,0.0768,0.0683,0.0710,
江戸川 (Edogawa),2014-09-05,02:01～03:00,0.0768,0.0669,0.0712,
江戸川 (Edogawa),2014-09-05,01:01～02:00,0.0747,0.0673,0.0710,
江戸川 (Edogawa),2014-09-05,00:01～01:00,0.0755,0.0680,0.0710,
江戸川 (Edogawa),2014-09-04,23:01～24:00,0.0745,0.0679,0.0708,
江戸川 (Edogawa),2014-09-04,22:01～23:00,0.0742,0.0676,0.0712,
江戸川 (Edogawa),2014-09-04,21:01～22:00,0.0752,0.0680,0.0713,
江戸川 (Edogawa),2014-09-04,20:01～21:00,0.0768,0.0675,0.0709,
江戸川 (Edogawa),2014-09-04,19:01～20:00,0.0755,0.0681,0.0712,
江戸川 (Edogawa),2014-09-04,18:01～19:00,0.0778,0.0679,0.0709,
江戸川 (Edogawa),2014-09-04,17:01～18:00,0.0732,0.0666,0.0706,
江戸川 (Edogawa),2014-09-04,16:01～17:00,0.0752,0.0669,0.0706,
江戸川 (Edogawa),2014-09-04,15:01～16:00,0.0736,0.0673,0.0709,
江戸川 (Edogawa),2014-09-04,14:01～15:00,0.0744,0.0680,0.0710,
江戸川 (Edogawa),2014-09-04,13:01～14:00,0.0756,0.0668,0.0707,
江戸川 (Edogawa),2014-09-04,12:01～13:00,0.0744,0.0667,0.0706,
江戸川 (Edogawa),2014-09-04,11:01～12:00,0.0737,0.0678,0.0710,
江戸川 (Edogawa),2014-09-04,10:01～11:00,0.0739,0.0672,0.0707,
江戸川 (Edogawa),2014-09-04,09:01～10:00,0.0743,0.0676,0.0708,
江戸川 (Edogawa),2014-09-04,08:01～09:00,0.0742,0.0673,0.0706,
江戸川 (Edogawa),2014-09-04,07:01～08:00,0.0741,0.0667,0.0710,
江戸川 (Edogawa),2014-09-04,06:01～07:00,0.0741,0.0666,0.0704,
江戸川 (Edogawa),2014-09-04,05:01～06:00,0.0745,0.0670,0.0706,
江戸川 (Edogawa),2014-09-04,04:01～05:00,0.0753,0.0676,0.0709,
江戸川 (Edogawa),2014-09-04,03:01～04:00,0.0740,0.0667,0.0709,
江戸川 (Edogawa),2014-09-04,02:01～03:00,0.0744,0.0678,0.0706,
江戸川 (Edogawa),2014-09-04,01:01～02:00,0.0729,0.0670,0.0702,
江戸川 (Edogawa),2014-09-04,00:01～01:00,0.0754,0.0673,0.0707,
江戸川 (Edogawa),2014-09-03,23:01～24:00,0.0737,0.0662,0.0707,
江戸川 (Edogawa),2014-09-03,22:01～23:00,0.0747,0.0669,0.0705,
江戸川 (Edogawa),2014-09-03,21:01～22:00,0.0739,0.0674,0.0706,
江戸川 (Edogawa),2014-09-03,20:01～21:00,0.0730,0.0669,0.0703,
江戸川 (Edogawa),2014-09-03,19:01～20:00,0.0746,0.0683,0.0710,
江戸川 (Edogawa),2014-09-03,18:01～19:00,0.0737,0.0669,0.0705,
江戸川 (Edogawa),2014-09-03,17:01～18:00,0.0728,0.0674,0.0702,
江戸川 (Edogawa),2014-09-03,16:01～17:00,0.0742,0.0661,0.0704,
江戸川 (Edogawa),2014-09-03,15:01～16:00,0.0737,0.0658,0.0704,
江戸川 (Edogawa),2014-09-03,14:01～15:00,0.0735,0.0675,0.0704,
江戸川 (Edogawa),2014-09-03,13:01～14:00,0.0741,0.0678,0.0707,
江戸川 (Edogawa),2014-09-03,12:01～13:00,0.0735,0.0674,0.0703,
江戸川 (Edogawa),2014-09-03,11:01～12:00,0.0756,0.0671,0.0703,
江戸川 (Edogawa),2014-09-03,10:01～11:00,0.0738,0.0658,0.0700,
江戸川 (Edogawa),2014-09-03,09:01～10:00,0.0735,0.0667,0.0705,
江戸川 (Edogawa),2014-09-03,08:01～09:00,0.0737,0.0670,0.0699,
江戸川 (Edogawa),2014-09-03,07:01～08:00,0.0754,0.0678,0.0706,
江戸川 (Edogawa),2014-09-03,06:01～07:00,0.0731,0.0671,0.0701,
江戸川 (Edogawa),2014-09-03,05:01～06:00,0.0741,0.0674,0.0705,
江戸川 (Edogawa),2014-09-03,04:01～05:00,0.0743,0.0676,0.0703,
江戸川 (Edogawa),2014-09-03,03:01～04:00,0.0731,0.0666,0.0700,
江戸川 (Edogawa),2014-09-03,02:01～03:00,0.0745,0.0665,0.0703,
江戸川 (Edogawa),2014-09-03,01:01～02:00,0.0732,0.0659,0.0703,
江戸川 (Edogawa),2014-09-03,00:01～01:00,0.0739,0.0675,0.0705,
江戸川 (Edogawa),2014-09-02,23:01～24:00,0.0732,0.0667,0.0700,
江戸川 (Edogawa),2014-09-02,22:01～23:00,0.0751,0.0667,0.0701,
江戸川 (Edogawa),2014-09-02,21:01～22:00,0.0744,0.0676,0.0703,
江戸川 (Edogawa),2014-09-02,20:01～21:00,0.0746,0.0667,0.0702,
江戸川 (Edogawa),2014-09-02,19:01～20:00,0.0732,0.0648,0.0698,
江戸川 (Edogawa),2014-09-02,18:01～19:00,0.0743,0.0672,0.0700,
江戸川 (Edogawa),2014-09-02,17:01～18:00,0.0736,0.0665,0.0705,
江戸川 (Edogawa),2014-09-02,16:01～17:00,0.0741,0.0661,0.0705,
江戸川 (Edogawa),2014-09-02,15:01～16:00,0.0743,0.0679,0.0706,
江戸川 (Edogawa),2014-09-02,14:01～15:00,0.0736,0.0663,0.0702,
江戸川 (Edogawa),2014-09-02,13:01～14:00,0.0748,0.0670,0.0704,
江戸川 (Edogawa),2014-09-02,12:01～13:00,0.0737,0.0659,0.0702,
江戸川 (Edogawa),2014-09-02,11:01～12:00,0.0741,0.0665,0.0704,
江戸川 (Edogawa),2014-09-02,10:01～11:00,0.0736,0.0672,0.0703,
江戸川 (Edogawa),2014-09-02,09:01～10:00,0.0780,0.0661,0.0701,
江戸川 (Edogawa),2014-09-02,08:01～09:00,0.0729,0.0653,0.0698,
江戸川 (Edogawa),2014-09-02,07:01～08:00,0.0732,0.0649,0.0697,
江戸川 (Edogawa),2014-09-02,06:01～07:00,0.0730,0.0649,0.0697,
江戸川 (Edogawa),2014-09-02,05:01～06:00,0.0755,0.0663,0.0701,
江戸川 (Edogawa),2014-09-02,04:01～05:00,0.0726,0.0657,0.0691,
江戸川 (Edogawa),2014-09-02,03:01～04:00,0.0734,0.0664,0.0698,
江戸川 (Edogawa),2014-09-02,02:01～03:00,0.0735,0.0662,0.0699,
江戸川 (Edogawa),2014-09-02,01:01～02:00,0.0742,0.0663,0.0702,
江戸川 (Edogawa),2014-09-02,00:01～01:00,0.0735,0.0674,0.0699,
江戸川 (Edogawa),2014-09-01,23:01～24:00,0.0750,0.0676,0.0715,
江戸川 (Edogawa),2014-09-01,22:01～23:00,0.0807,0.0706,0.0746,
江戸川 (Edogawa),2014-09-01,21:01～22:00,0.0800,0.0688,0.0737,
江戸川 (Edogawa),2014-09-01,20:01～21:00,0.0776,0.0702,0.0733,
江戸川 (Edogawa),2014-09-01,19:01～20:00,0.0743,0.0654,0.0700,
江戸川 (Edogawa),2014-09-01,18:01～19:00,0.0732,0.0663,0.0702,
江戸川 (Edogawa),2014-09-01,17:01～18:00,0.0753,0.0681,0.0717,
江戸川 (Edogawa),2014-09-01,16:01～17:00,0.0792,0.0687,0.0740,
江戸川 (Edogawa),2014-09-01,15:01～16:00,0.0832,0.0714,0.0768,
江戸川 (Edogawa),2014-09-01,14:01～15:00,0.0806,0.0687,0.0739,
江戸川 (Edogawa),2014-09-01,13:01～14:00,0.0743,0.0658,0.0710,
江戸川 (Edogawa),2014-09-01,12:01～13:00,0.0747,0.0658,0.0702,
江戸川 (Edogawa),2014-09-01,11:01～12:00,0.0737,0.0678,0.0708,
江戸川 (Edogawa),2014-09-01,10:01～11:00,0.0741,0.0674,0.0708,
江戸川 (Edogawa),2014-09-01,09:01～10:00,0.0742,0.0682,0.0717,
江戸川 (Edogawa),2014-09-01,08:01～09:00,0.0776,0.0677,0.0725,
江戸川 (Edogawa),2014-09-01,07:01～08:00,0.0781,0.0677,0.0729,
江戸川 (Edogawa),2014-09-01,06:01～07:00,0.0763,0.0679,0.0715,
江戸川 (Edogawa),2014-09-01,05:01～06:00,0.0742,0.0673,0.0715,
江戸川 (Edogawa),2014-09-01,04:01～05:00,0.0753,0.0669,0.0710,
江戸川 (Edogawa),2014-09-01,03:01～04:00,0.0755,0.0661,0.0706,
江戸川 (Edogawa),2014-09-01,02:01～03:00,0.0737,0.0665,0.0706,
江戸川 (Edogawa),2014-09-01,01:01～02:00,0.0739,0.0668,0.0710,
江戸川 (Edogawa),2014-09-01,00:01～01:00,0.0762,0.0672,0.0709,
